Location: ??
(34.9170°N, 135.5016°E)
Time: 23:03:02
(UTC+00:00)

S-56A Canister/Altair - Pass Details

Date: 14 March 2021
Orbit: 632 x 2500 km, 38.9° (Epoch: 12 April)

Event Time Altitude Azimuth Distance (km) Brightness Sun altitude
Rises 10:24:55 0° 280° (W) 6,180 13.9 -17.2°
Reaches altitude 10° 10:32:36 10° 257° (WSW) 5,083 12.7 -18.8°
Maximum altitude 10:37:47 13° 236° (SW) 4,696 12.1 -19.8°
Drops below altitude 10° 10:42:41 10° 214° (SW) 4,710 11.8 -20.8°
Sets 10:49:13 0° 189° (S) 5,316 11.8 -22.1°
